sat.trackr.live / text

‹ back to catalog

STARLINK-5299

NORAD 55277 · 2023-010J

PAYLOAD ACTIVE UNKNOWN

§ Identity

Operator
Country
US
Launch date
2023-01-19
Launch site
AFWTR
Launch vehicle
Mass (kg)
RCS (m²)

Purposes: comms

External: N2YO · Heavens-Above · Gunter

§ Orbital elements

Epoch: 2026-09-20T22:00:03.000096Z

Period
95.70 min
Inclination
69.9994°
Eccentricity
0.0005748
Mean motion
15.04731131 rev/d
Perigee alt
548.3 km
Apogee alt
556.3 km
Semi-major
6,930.5 km
B*
8.0520e-3
RAAN
272.2061°
Arg perigee
245.1547°
Mean anomaly
325.1506°
Rev number
576

§ Raw data

STARLINK-52991 55277U 23010J   26263.91670139  .00115473  00000+0  80520-2 0  99942 55277  69.9994 272.2061 0005748 245.1547 325.1506 15.04731131  5762

JSON: /api/v1/satellites/55277 · /tle

For live sub-satellite position, see the globe view (requires WebGL).

§ Visibility from observer

Set your observer location to see the next 7 days of passes ≥ 10°. The values pass through the URL so the page stays shareable.

No JS? Fill the form by hand. The geolocation button needs JavaScript.